Home   Weather   Swanage   Past weeks

Flag for United Kingdom Past Weather in Swanage, England, United Kingdom — Yesterday and Last 2 Weeks

Now
54 °F

Passing clouds.


Feels Like: 52 °F
Forecast: 50 / 55 °F
Wind: 6 mph from South

Location: Bournemouth Airport

Current Time: Dec 7, 2016 at 10:55:44 am

Latest Report: Dec 7, 2016 at 9:50 am


Visibility: 6 mi

Pressure: 30.30 "Hg

Humidity: 88%

Dew Point: 50 °F

Location of SwanageLocation

Past Weather in Swanage — Graph

°F

Swanage Temperature Yesterday

Maximum temperature yesterday: 52 °F (at 12:50 pm)
Minimum temperature yesterday: 45 °F (at 5:50 am)
Average temperature yesterday: 50 °F

High & Low Weather Summary for the Past Weeks

 TemperatureHumidityPressure
High52 °F (Nov 22, 10:20 am)100% (Nov 22, 6:20 pm)30.60 "Hg (Nov 22, 6:20 pm)
Low19 °F (Nov 30, 7:20 am)43% (Nov 28, 2:20 pm)29.47 "Hg (Nov 22, 9:20 am)
Average42 °F84%30.23 "Hg
* Reported Nov 22 9:20 am — Dec 7 9:20 am, Swanage, Weather by CustomWeather, © 2016

Note: Actual official high and low records may vary slightly from our data, if they occured in-between our weather recording intervals... More about our weather records

Advertising

Swanage Weather History for the Previous 24 Hours

Scroll right to see more
 ConditionsComfort  
Time TempWeatherWind HumidityBarometerVisibility
9:20 am
Wed, Dec 7
52 °FPassing clouds.7 mph94%30.30 "Hg5 mi
8:50 am52 °FPassing clouds.7 mph94%30.30 "Hg4 mi
8:20 am50 °FFog.3 mph100%30.30 "Hg3 mi
7:50 am50 °FFog.7 mph100%30.30 "Hg3 mi
7:20 am52 °FFog.8 mph94%30.30 "Hg3 mi
6:50 am52 °FFog.8 mph94%30.30 "Hg3 mi
6:20 am52 °FFog.6 mph94%30.27 "Hg3 mi
11:20 pm
Tue, Dec 6
52 °FFog.3 mph94%30.33 "Hg3 mi
10:50 pm52 °FFog.3 mph94%30.33 "Hg2 mi
10:20 pm52 °FFog.3 mph94%30.33 "Hg3 mi
9:50 pm52 °FFog.7 mph94%30.33 "Hg3 mi
9:20 pm52 °FFog.8 mph94%30.33 "Hg3 mi
8:50 pm52 °FFog.7 mph94%30.33 "Hg3 mi
8:20 pm52 °FFog.5 mph94%30.33 "Hg3 mi
7:50 pm52 °FLow clouds.5 mph94%30.33 "Hg4 mi
7:20 pm52 °FFog.5 mph94%30.33 "Hg3 mi
6:50 pm50 °FFog.3 mph94%30.33 "Hg3 mi
5:50 pm52 °FLow clouds.3 mph94%30.30 "Hg4 mi
5:20 pm52 °FLow clouds.6 mph94%30.30 "Hg4 mi
4:50 pm52 °FOvercast.5 mph94%30.30 "Hg4 mi
4:20 pm52 °FOvercast.5 mph94%30.30 "Hg4 mi
3:50 pm52 °FOvercast.3 mph94%30.30 "Hg4 mi
3:20 pm52 °FLow clouds.3 mph94%30.30 "Hg4 mi
2:50 pm52 °FLow clouds.2 mph94%30.30 "Hg4 mi
2:20 pm52 °FOvercast.5 mph94%30.27 "Hg4 mi
1:50 pm52 °FLow clouds.3 mph94%30.30 "Hg4 mi
1:20 pm52 °FFog.3 mph94%30.30 "Hg3 mi
12:50 pm52 °FFog.2 mph94%30.30 "Hg3 mi
12:20 pm50 °FFog.2 mph100%30.30 "Hg2 mi
11:50 am50 °FFog.2 mph100%30.30 "Hg2 mi
11:20 am48 °FFog.1 mph100%30.30 "Hg2 mi
10:50 am48 °FFog.1 mph100%30.30 "Hg2 mi
10:20 am48 °FFog.3 mph100%30.30 "Hg2 mi
Weather by CustomWeather, © 2016

See weather overviewHow to use our weather pages